Skip Page Navigation
NASA JPL Caltech
NASA Logo - Jet Propulsion Laboratory + View the NASA Portal
+ Center for Near-Earth Object Studies
JPL Home Earth Solar System Stars & Galaxies Technology
JPL Solar System Dynamics
BODIES ORBITS EPHEMERIDES TOOLS PHYSICAL DATA DISCOVERY FAQ SITE MAP
JPL Small-Body Database Browser
Search: [ help ]  
70767 (1999 VP33)
Classification: Main-belt Asteroid          SPK-ID: 2070767
Ephemeris | Orbit Diagram | Orbital Elements | Mission Design | Physical Parameters | Discovery Circumstances | Close-Approach Data ]

[ show orbit diagram ]
Orbital Elements at Epoch 2459000.5 (2020-May-31.0) TDB
Reference: JPL 21 (heliocentric ecliptic J2000)
 Element Value Uncertainty (1-sigma)   Units 
e .06871679566727894 6.2781e-08  
a 2.98457889260995 2.3256e-08 au
q 2.779488194693599 1.8355e-07 au
i 12.37389343544814 6.1252e-06 deg
node 238.1619650000251 2.5522e-05 deg
peri 307.2050514608731 5.0037e-05 deg
M 235.8923732635667 4.7744e-05 deg
tp 2459649.760514904662
(2022-Mar-11.26051490)
0.00025337 TDB
period 1883.31524429242
5.16
2.2012e-05
6.027e-08
d
yr
n .1911522784573729 2.2342e-09 deg/d
Q 3.189669590526302 2.4854e-08 au
  Orbit Determination Parameters
   # obs. used (total)      785  
   data-arc span      7397 days (20.25 yr)  
   first obs. used      1999-11-03  
   last obs. used      2020-02-03  
   planetary ephem.      DE431  
   SB-pert. ephem.      SB431-N16  
   condition code      0  
   norm. resid. RMS      .55486  
   source      ORB  
   producer      Otto Matic  
   solution date      2020-Feb-23 16:15:22  

Additional Information
 Earth MOID = 1.79667 au 
 Jupiter MOID = 1.86008 au 
 T_jup = 3.219 
[ show covariance matrix ]

Ephemeris | Orbit Diagram | Orbital Elements | Mission Design | Physical Parameters | Discovery Circumstances | Close-Approach Data ]

Physical Parameter Table
Parameter Symbol Value Units Sigma Reference Notes
absolute magnitude H 14.4   n/a MPO502591  
diameter diameter 7.867 km 0.254 urn:nasa:pds:neowise_diameters_albedos::2.0[mainbelt] (http://adsabs.harvard.edu/abs/2011ApJ...741...68M)  
geometric albedo albedo 0.065   0.005 urn:nasa:pds:neowise_diameters_albedos::2.0[mainbelt] (http://adsabs.harvard.edu/abs/2011ApJ...741...68M)  

70767 (1999 VP33)          Discovered 1999-Nov-03 by LINEAR at Socorro
Reference: 20031109/Numbers.arcLast Updated: 2004-04-19

[ show close-approach data ]
Ephemeris | Orbit Diagram | Orbital Elements | Mission Design | Physical Parameters | Discovery Circumstances | Close-Approach Data ]
ABOUT SSD CREDITS/AWARDS PRIVACY/COPYRIGHT GLOSSARY LINKS
FirstGov 2020-Sep-21 07:32 UT
(server date/time)  
NASA Home Page
Site Manager:   Ryan S. Park
Webmaster  Alan B. Chamberlin